Tiempo atmosférico en la estación meteorológica de Tijarafe, Santa Cruz de Tenerife (733 m.)



Fecha
DESCASC
Temp. máxima en grados centígrados (hora)
DESCASC
Temp. mínima en grados centígrados (hora)
DESCASC
Temp. media en grados centígrados
DESCASC
Racha de viento máxima en m/sg (hora)
DESCASC
Velocidad máxima media en intervalos de 10 minutos(hora)
DESCASC
Precipitaciones diarias en mm
DESCASC
Precipitaciones de 00:00 a 06:00 en mm
DESCASC
Precipitaciones de 06:00 a 12:00 en mm
DESCASC
Precipitaciones de 12:00 a 18:00 en mm
DESCASC
Precipitaciones de 18:00 a 24:00 en mm
DESCASC
16-01-2020 16.4 (15:00) 9.9 (05:30) 13.1 5.83 (13:50) 3.61 (16:10) 0 0 0 0 0
15-01-2020 17.7 (15:10) 10.2 (06:40) 14 5 (13:50) 3.06 (06:30) 0 0 0 0 0
14-01-2020 17.8 (14:40) 10.7 (23:20) 14.2 6.67 (09:10) 2.5 (09:10) 0 0 0 0 0
13-01-2020 16.6 (15:30) 10.5 (06:50) 13.6 5 (14:50) 2.5 (15:00) 0 0 0 0 0
12-01-2020 15.3 (12:10) 10.5 (05:40) 12.9 6.11 (12:10) 3.61 (05:40) 0 0 0 0 0
11-01-2020 17.2 (15:50) 10.8 (00:00) 14 7.5 (09:50) 4.44 (12:30) 0 0 0 0 0
10-01-2020 18.5 (14:40) 11.3 (00:00) 14.9 6.11 (00:40) 4.44 (00:20) 0 0 0 0 0
09-01-2020 17 (17:00) 10.9 (00:00) 13.9 8.33 (14:50) 6.11 (20:10) 0 0 0 0 0
08-01-2020 17.3 (15:30) 11 (00:00) 14.1 6.67 (14:50) 4.44 (07:00) 0 0 0 0 0
07-01-2020 15.8 (12:20) 11 (00:00) 13.4 7.5 (05:50) 5.83 (06:00) 0 0 0 0 0
06-01-2020 15.4 (17:40) 10.7 (00:00) 13 8.33 (02:30) 4.17 (23:30) 0 0 0 0 0
05-01-2020 17.7 (15:10) 10.6 (00:00) 14.2 6.67 (12:50) 4.72 (13:00) 0 0 0 0 0
04-01-2020 17 (14:40) 10.3 (00:00) 13.7 6.39 (16:00) 4.17 (16:10) 0 0 0 0 0
03-01-2020 16.3 (13:30) 10.4 (00:00) 13.3 7.5 (16:40) 5.28 (08:30) 0 0 0 0 0
02-01-2020 16.9 (12:00) 10.5 (00:00) 13.7 8.61 (16:10) 5 (08:30) 0 0 0 0 0
01-01-2020 18.4 (15:10) 11.3 (00:00) 14.8 7.5 (16:40) 4.44 (16:30) 0 0 0 0 0
31-12-2019 21.1 (14:20) 12.1 (00:00) 16.6 4.17 (12:30) 2.78 (12:30) 0 0 0 0 0
30-12-2019 -- (--) -- (--) -- -- (--) -- (--) -- 0 0 0 --
29-12-2019 23.4 (14:50) 17.5 (00:00) 20.4 5.28 (06:10) 3.06 (03:50) 0 0 0 0 0
28-12-2019 25.5 (15:50) 18.5 (00:00) 22 5.83 (05:00) 3.61 (17:20) 0 0 0 0 0
27-12-2019 22.2 (16:40) 15.3 (00:00) 18.8 6.39 (10:00) 3.61 (13:40) 0 0 0 0 0
26-12-2019 21.3 (13:30) 16.2 (00:00) 18.8 8.33 (14:10) 4.72 (15:30) 0 0 0 0 0
25-12-2019 20.9 (20:00) 15.3 (00:00) 18.1 9.17 (08:40) 6.11 (08:40) 0 0 0 0 0
24-12-2019 22.8 (13:50) 13.7 (00:10) 18.2 7.5 (11:40) 2.78 (22:40) 0 0 0 0 0
23-12-2019 18.5 (12:20) 12.5 (00:00) 15.5 7.78 (14:10) 4.17 (14:00) 0 0 0 0 0
22-12-2019 17.3 (14:40) 11.8 (05:30) 14.5 8.61 (07:10) 6.11 (06:30) 0 0 0 0 0
21-12-2019 17.3 (12:10) 12.4 (04:30) 14.8 7.22 (01:10) 5.56 (05:00) 0.4 0 0 0.4 0
20-12-2019 17.6 (15:20) 12.8 (00:00) 15.2 6.11 (06:00) 4.44 (05:20) 0 0 0 0 0
19-12-2019 17.1 (12:00) 11.5 (02:10) 14.3 5.83 (04:30) 4.44 (04:30) 0 0 0 0 0

Gráficas

Temp. máximas Temp. mínimas Temp. medias Precipitaciones Rachas de viento máximas Velocidades máximas media en intervalos de 10 minutos

Datos horarios

Fecha y hora oficial Temperatura (ºC) Velocidad del viento (km/h) Dirección del viento Racha (km/h) Dirección de racha Precipitación (mm) Presión (hPa) Tendencia (hPa) Humedad (%)
2020-01-17 23:00:00 11.7 0 Calma 5 Norte 0 -- -- 59
2020-01-17 22:00:00 11.8 4 Norte 8 Nordeste 0 -- -- 47
2020-01-17 21:00:00 11.8 6 Nordeste 12 Norte 0 -- -- 52
2020-01-17 20:00:00 11.9 0 Calma 5 Norte 0 -- -- 59
2020-01-17 19:00:00 12.8 6 Norte 10 Noroeste 0 -- -- 58
2020-01-17 18:00:00 15.5 6 Norte 15 Noroeste 0 -- -- 47
2020-01-17 17:00:00 16.4 6 Noroeste 17 Noroeste 0 -- -- 43
2020-01-17 16:00:00 16.6 10 Norte 17 Noroeste 0 -- -- 44
2020-01-17 15:00:00 16.7 7 Norte 14 Noroeste 0 -- -- 41
2020-01-17 14:00:00 16.9 4 Norte 14 Norte 0 -- -- 51
2020-01-17 13:00:00 16.5 5 Norte 9 Nordeste 0 -- -- 53
2020-01-17 12:00:00 15.9 4 Norte 10 Norte 0 -- -- 49
2020-01-17 11:00:00 14.4 3 Nordeste 8 Este 0 -- -- 45
2020-01-17 10:00:00 12 4 Nordeste 12 Norte 0 -- -- 32
2020-01-17 09:00:00 11.6 5 Nordeste 15 Sudeste 0 -- -- 26
2020-01-17 08:00:00 10.8 4 Noroeste 17 Norte 0 -- -- 32
2020-01-17 07:00:00 9.7 2 Noroeste 6 Norte 0 -- -- 70
2020-01-17 06:00:00 10.7 4 Noroeste 9 Sudeste 0 -- -- 37
2020-01-17 05:00:00 11 5 Nordeste 15 Nordeste 0 -- -- 46
2020-01-17 04:00:00 10.9 8 Nordeste 17 Norte 0 -- -- 39
2020-01-17 03:00:00 11.2 7 Norte 17 Norte 0 -- -- 43
2020-01-17 02:00:00 11 9 Norte 13 Norte 0 -- -- 47
2020-01-17 01:00:00 11.3 7 Norte 9 Norte 0 -- -- 39
2020-01-17 00:00:00 11.3 0 Calma 10 Sudeste 0 -- -- 53
2020-01-16 23:00:00 12.2 5 Sudeste 6 Sudeste 0 -- -- 47
2020-01-16 22:00:00 11.9 3 Nordeste 10 Nordeste 0 -- -- 47
2020-01-16 21:00:00 11.5 3 Nordeste 11 Norte 0 -- -- 49
2020-01-16 20:00:00 12.4 2 Sudeste 6 Sudeste 0 -- -- 50
2020-01-16 19:00:00 12.7 3 Nordeste 13 Norte 0 -- -- 49
2020-01-16 18:00:00 14.8 11 Norte 18 Norte 0 -- -- 42
2020-01-16 17:00:00 16.1 10 Noroeste 21 Noroeste 0 -- -- 40
2020-01-16 16:00:00 16 11 Noroeste 17 Noroeste 0 -- -- 39
2020-01-16 15:00:00 16.4 8 Noroeste 18 Noroeste 0 -- -- 39
2020-01-16 14:00:00 15.6 9 Noroeste 21 Noroeste 0 -- -- 41
2020-01-16 13:00:00 15.9 8 Noroeste 14 Noroeste 0 -- -- 40
2020-01-16 12:00:00 15.9 3 Noroeste 15 Sudoeste 0 -- -- 37
2020-01-16 11:00:00 14.6 2 Noroeste 10 Noroeste 0 -- -- 41
2020-01-16 10:00:00 12.1 2 Nordeste 11 Sudoeste 0 -- -- 38
2020-01-16 09:00:00 10.8 2 Norte 8 Nordeste 0 -- -- 46
2020-01-16 08:00:00 10.7 0 Calma 6 Noroeste 0 -- -- 49
2020-01-16 07:00:00 10.6 2 Sur 6 Nordeste 0 -- -- 52
2020-01-16 06:00:00 10.1 2 Noroeste 8 Noroeste 0 -- -- 62
2020-01-16 05:00:00 10.2 2 Norte 8 Este 0 -- -- 49
2020-01-16 04:00:00 10.6 3 Noroeste 12 Noroeste 0 -- -- 51
2020-01-16 03:00:00 11 10 Noroeste 14 Noroeste 0 -- -- 63
2020-01-16 02:00:00 10.9 2 Sur 8 Sur 0 -- -- 42
2020-01-16 01:00:00 10.6 3 Norte 10 Sudeste 0 -- -- 57
2020-01-16 00:00:00 11.1 3 Sudeste 9 Sur 0 -- -- 55
2020-01-15 23:00:00 11.1 3 Sur 11 Este 0 -- -- 59
2020-01-15 22:00:00 11.3 3 Sur 15 Sur 0 -- -- 68
2020-01-15 21:00:00 11.7 0 Calma 12 Sudeste 0 -- -- 61
2020-01-15 20:00:00 11.7 3 Sudeste 7 Sudeste 0 -- -- 68
2020-01-15 19:00:00 12.6 0 Calma 9 Nordeste 0 -- -- 71
2020-01-15 18:00:00 15.1 3 Nordeste 12 Este 0 -- -- 63
2020-01-15 17:00:00 16.8 4 Norte 16 Nordeste 0 -- -- 59
2020-01-15 16:00:00 17.3 5 Norte 15 Noroeste 0 -- -- 58
2020-01-15 15:00:00 17.2 5 Noroeste 17 Noroeste 0 -- -- 47
2020-01-15 14:00:00 17.1 5 Norte 18 Noroeste 0 -- -- 52
2020-01-15 13:00:00 16.6 6 Noroeste 17 Noroeste 0 -- -- 47
2020-01-15 12:00:00 15.9 5 Norte 15 Sudoeste 0 -- -- 51
2020-01-15 11:00:00 14.2 5 Oeste 15 Sur 0 -- -- 47
2020-01-15 10:00:00 11.4 4 Noroeste 8 Noroeste 0 -- -- 48
2020-01-15 09:00:00 11 2 Norte 5 Sudeste 0 -- -- 38
2020-01-15 08:00:00 10.3 2 Norte 13 Nordeste 0 -- -- 52
2020-01-15 07:00:00 10.3 11 Norte 14 Norte 0 -- -- 53
2020-01-15 06:00:00 10.7 6 Oeste 10 Sudoeste 0 -- -- 66
2020-01-15 05:00:00 10.5 3 Este 13 Sudoeste 0 -- -- 71
2020-01-15 04:00:00 11 4 Sur 13 Sudoeste 0 -- -- 65
2020-01-15 03:00:00 10.8 7 Oeste 14 Sudoeste 0 -- -- 63
2020-01-15 02:00:00 10.6 3 Nordeste 10 Sur 0 -- -- 71
2020-01-15 01:00:00 10.7 4 Sudoeste 14 Nordeste 0 -- -- 68
2020-01-15 00:00:00 10.7 3 Nordeste 12 Sudoeste 0 -- -- 76
2020-01-14 23:00:00 10.8 3 Nordeste 15 Este 0 -- -- 72
2020-01-14 22:00:00 11 3 Norte 13 Sudeste 0 -- -- 59
2020-01-14 21:00:00 11.2 2 Norte 9 Nordeste 0 -- -- 69
2020-01-14 20:00:00 11.7 2 Norte 13 Oeste 0 -- -- 72
2020-01-14 19:00:00 12.6 3 Nordeste 12 Nordeste 0 -- -- 70
2020-01-14 18:00:00 15.3 5 Nordeste 14 Nordeste 0 -- -- 64
2020-01-14 17:00:00 17.1 4 Nordeste 15 Sudoeste 0 -- -- 54
2020-01-14 16:00:00 17.8 5 Norte 16 Este 0 -- -- 54
2020-01-14 15:00:00 17.8 5 Nordeste 20 Nordeste 0 -- -- 52
2020-01-14 14:00:00 17.6 6 Nordeste 17 Nordeste 0 -- -- 55
2020-01-14 13:00:00 17 6 Norte 16 Nordeste 0 -- -- 60
2020-01-14 12:00:00 16.2 6 Nordeste 23 Este 0 -- -- 62
2020-01-14 11:00:00 15 6 Nordeste 18 Norte 0 -- -- 53
2020-01-14 10:00:00 13.5 5 Nordeste 24 Sudoeste 0 -- -- 36
2020-01-14 09:00:00 12.7 8 Norte 20 Sudoeste 0 -- -- 36
2020-01-14 08:00:00 12.6 4 Norte 17 Nordeste 0 -- -- 33
2020-01-14 07:00:00 12.5 3 Norte 10 Oeste 0 -- -- 31
2020-01-14 06:00:00 12.9 3 Norte 17 Sudoeste 0 -- -- 29
2020-01-14 05:00:00 13.1 4 Norte 19 Nordeste 0 -- -- 29
2020-01-14 04:00:00 13.5 5 Noroeste 19 Norte 0 -- -- 28
2020-01-14 03:00:00 13 4 Noroeste 20 Nordeste 0 -- -- 32
2020-01-14 02:00:00 13.1 5 Noroeste 17 Nordeste -- -- -- 37
2020-01-14 01:00:00 12.5 5 Noroeste 15 Nordeste 0 -- -- 49
2020-01-14 00:00:00 12.6 6 Norte 15 Norte 0 -- -- 53
2020-01-13 23:00:00 11.9 4 Norte 10 Noroeste 0 -- -- 57
2020-01-13 22:00:00 11.4 3 Norte 7 Oeste 0 -- -- 64
2020-01-13 21:00:00 12 0 Calma 11 Sudeste 0 -- -- 70
2020-01-13 20:00:00 12.1 0 Calma 6 Sudeste 0 -- -- 73
2020-01-13 19:00:00 12.9 2 Norte 10 Norte 0 -- -- 65
2020-01-13 18:00:00 15.1 6 Noroeste 14 Noroeste 0 -- -- 56
2020-01-13 17:00:00 16.4 5 Noroeste 15 Noroeste 0 -- -- 48
2020-01-13 16:00:00 16.4 5 Noroeste 16 Norte 0 -- -- 45
2020-01-13 15:00:00 16.2 9 Norte 18 Norte 0 -- -- 40
2020-01-13 14:00:00 16 5 Norte 15 Noroeste 0 -- -- 46
2020-01-13 13:00:00 15.8 7 Norte 12 Noroeste 0 -- -- 45
2020-01-13 12:00:00 15.3 3 Noroeste 9 Noroeste 0 -- -- 51
2020-01-13 11:00:00 14.3 0 Calma 3 Noroeste 0 -- -- 58
2020-01-13 10:00:00 11.8 0 Calma 6 Este 0 -- -- 67
2020-01-13 09:00:00 10.8 0 Calma 7 Norte 0 -- -- 72
2020-01-13 08:00:00 11 3 Sudeste 6 Este 0 -- -- 62
2020-01-13 07:00:00 10.5 2 Norte 7 Norte 0 -- -- 78
2020-01-13 06:00:00 10.8 6 Norte 8 Norte 0 -- -- 81
2020-01-13 05:00:00 10.9 2 Este 8 Norte 0 -- -- 76
2020-01-13 04:00:00 10.7 5 Nordeste 11 Este 0 -- -- 82
2020-01-13 03:00:00 11 5 Sudeste 15 Sudeste 0 -- -- 78
2020-01-13 02:00:00 11.3 7 Sudeste 12 Sudeste 0 -- -- 80
2020-01-13 01:00:00 11.3 0 Calma 6 Este 0 -- -- 80
2020-01-13 00:00:00 11.4 3 Norte 11 Noroeste 0 -- -- 78
2020-01-12 23:00:00 11.7 6 Noroeste 17 Noroeste 0 -- -- 79
2020-01-12 22:00:00 11.6 9 Norte 13 Nordeste 0 -- -- 85
2020-01-12 21:00:00 12.3 2 Nordeste 10 Nordeste 0 -- -- 85
2020-01-12 20:00:00 12.5 8 Norte 18 Norte 0 -- -- 79
2020-01-12 19:00:00 12.6 7 Norte 13 Norte 0 -- -- 84
2020-01-12 18:00:00 13 0 Calma 13 Sudoeste 0 -- -- 77
2020-01-12 17:00:00 13.7 2 Oeste 9 Oeste 0 -- -- 78
2020-01-12 16:00:00 13.8 4 Oeste 9 Oeste 0 -- -- 73
2020-01-12 15:00:00 13.7 3 Norte 9 Oeste 0 -- -- 75
2020-01-12 14:00:00 13.5 5 Noroeste 13 Noroeste 0 -- -- 76
2020-01-12 13:00:00 14.2 2 Noroeste 22 Oeste 0 -- -- 79
2020-01-12 12:00:00 15.1 3 Norte 19 Noroeste 0 -- -- 74
2020-01-12 11:00:00 13.7 3 Noroeste 17 Norte 0 -- -- 76
2020-01-12 10:00:00 12.2 3 Noroeste 15 Norte 0 -- -- 88
2020-01-12 09:00:00 11.4 11 Nordeste 19 Noroeste 0 -- -- 79
2020-01-12 08:00:00 11.4 5 Norte 21 Este 0 -- -- 85
2020-01-12 07:00:00 10.8 6 Nordeste 18 Norte 0 -- -- 84
2020-01-12 06:00:00 10.6 12 Norte 16 Nordeste 0 -- -- 82
2020-01-12 05:00:00 10.9 0 Calma 14 Norte 0 -- -- 85
2020-01-12 04:00:00 11.4 10 Norte 16 Sudeste 0 -- -- 74
2020-01-12 03:00:00 11.6 0 Calma 9 Oeste 0 -- -- 80
2020-01-12 02:00:00 12 0 Calma 16 Nordeste 0 -- -- 76
2020-01-12 01:00:00 12.1 10 Nordeste 15 Nordeste 0 -- -- 81
2020-01-12 00:00:00 11.9 0 Calma 9 Oeste 0 -- -- 78
2020-01-11 23:00:00 12.1 6 Norte 14 Oeste 0 -- -- 81
2020-01-11 22:00:00 12.2 4 Noroeste 16 Oeste 0 -- -- 80
2020-01-11 21:00:00 12.1 3 Noroeste 10 Nordeste 0 -- -- 78
2020-01-11 20:00:00 12.4 2 Noroeste 13 Nordeste 0 -- -- 79
2020-01-11 19:00:00 13.3 3 Nordeste 18 Nordeste 0 -- -- 80
2020-01-11 18:00:00 14.4 4 Noroeste 14 Oeste 0 -- -- 76
2020-01-11 17:00:00 15.4 7 Noroeste 20 Noroeste 0 -- -- 66
2020-01-11 16:00:00 16.7 5 Norte 21 Sudoeste 0 -- -- 64
2020-01-11 15:00:00 16.7 5 Norte 21 Sur 0 -- -- 63
2020-01-11 14:00:00 14.5 4 Norte 19 Noroeste 0 -- -- 75
2020-01-11 13:00:00 13.3 14 Norte 23 Norte 0 -- -- 80
2020-01-11 12:00:00 13.1 12 Norte 20 Norte 0 -- -- 80
2020-01-11 11:00:00 14.4 5 Noroeste 17 Sur 0 -- -- 79
2020-01-11 10:00:00 12.4 6 Oeste 27 Sudoeste 0 -- -- 75
2020-01-11 09:00:00 11.2 3 Noroeste 9 Norte 0 -- -- 83
2020-01-11 08:00:00 10.9 0 Calma 5 Norte 0 -- -- 85
2020-01-11 07:00:00 11.4 2 Nordeste 8 Noroeste 0 -- -- 93
2020-01-11 06:00:00 11.5 0 Calma 4 Oeste 0 -- -- 90
2020-01-11 05:00:00 11.3 2 Norte 10 Sudoeste 0 -- -- 88
2020-01-11 04:00:00 11.3 2 Nordeste 7 Norte 0 -- -- 93
2020-01-11 03:00:00 11.5 0 Calma 6 Nordeste 0 -- -- 87
2020-01-11 02:00:00 11.4 5 Nordeste 11 Norte 0 -- -- 86
2020-01-11 01:00:00 11.4 3 Nordeste 13 Sudeste 0 -- -- 90
2020-01-11 00:00:00 11.8 2 Noroeste 8 Nordeste 0 -- -- 85
2020-01-10 23:00:00 12.3 0 Calma 5 Este 0 -- -- 86
2020-01-10 22:00:00 12.1 3 Nordeste 15 Norte 0 -- -- 88
2020-01-10 21:00:00 12.6 9 Norte 14 Sudoeste 0 -- -- 88
2020-01-10 20:00:00 13 0 Calma 14 Norte 0 -- -- 85
2020-01-10 19:00:00 13.4 9 Norte 21 Noroeste 0 -- -- 87
2020-01-10 18:00:00 15.3 8 Noroeste 17 Noroeste 0 -- -- 79
2020-01-10 17:00:00 17.3 7 Noroeste 16 Oeste 0 -- -- 70
2020-01-10 16:00:00 17.3 5 Noroeste 15 Oeste 0 -- -- 72
2020-01-10 15:00:00 18.1 6 Noroeste 18 Oeste 0 -- -- 70
2020-01-10 14:00:00 16.7 6 Noroeste 19 Noroeste 0 -- -- 73
2020-01-10 13:00:00 15.6 9 Noroeste 18 Noroeste 0 -- -- 77
2020-01-10 12:00:00 13.6 6 Noroeste 17 Norte 0 -- -- 85
2020-01-10 11:00:00 13.2 10 Noroeste 16 Noroeste 0 -- -- 86
2020-01-10 10:00:00 12.6 8 Nordeste 16 Nordeste 0 -- -- 80
2020-01-10 09:00:00 12 11 Norte 16 Nordeste 0 -- -- 89
2020-01-10 08:00:00 11.5 9 Norte 12 Norte 0 -- -- 89
2020-01-10 07:00:00 11.4 12 Norte 19 Nordeste 0 -- -- 87
2020-01-10 06:00:00 11.6 8 Norte 15 Nordeste 0 -- -- 80
2020-01-10 05:00:00 11.6 11 Norte 16 Norte 0 -- -- 79
2020-01-10 04:00:00 12 5 Norte 17 Norte 0 -- -- 72
2020-01-10 03:00:00 12.4 6 Nordeste 12 Nordeste 0 -- -- 65
2020-01-10 02:00:00 12.3 3 Norte 14 Nordeste 0 -- -- 67
2020-01-10 01:00:00 12.3 10 Norte 22 Nordeste 0 -- -- 62
2020-01-10 00:00:00 12.1 15 Norte 22 Nordeste 0 -- -- 70
2020-01-09 23:00:00 12.2 13 Norte 19 Norte 0 -- -- 68
2020-01-09 22:00:00 12 14 Nordeste 22 Norte 0 -- -- 73
2020-01-09 21:00:00 12.3 5 Este 30 Nordeste 0 -- -- 74
2020-01-09 20:00:00 12.4 21 Nordeste 25 Norte 0 -- -- 76
2020-01-09 19:00:00 12.8 17 Norte 24 Nordeste 0 -- -- 74
2020-01-09 18:00:00 14.7 14 Norte 25 Noroeste 0 -- -- 69
2020-01-09 17:00:00 17 6 Noroeste 23 Noroeste 0 -- -- 62
2020-01-09 16:00:00 16.5 12 Noroeste 23 Norte 0 -- -- 64
2020-01-09 15:00:00 16.1 13 Noroeste 30 Noroeste 0 -- -- 66
2020-01-09 14:00:00 14.9 17 Noroeste 30 Noroeste 0 -- -- 76
2020-01-09 13:00:00 15 10 Noroeste 21 Noroeste 0 -- -- 68
2020-01-09 12:00:00 14.7 4 Noroeste 21 Noroeste 0 -- -- 70
2020-01-09 11:00:00 13.3 10 Noroeste 22 Norte 0 -- -- 76
2020-01-09 10:00:00 12.3 12 Nordeste 19 Norte 0 -- -- 70
2020-01-09 09:00:00 11.5 6 Nordeste 22 Nordeste 0 -- -- 71
2020-01-09 08:00:00 10.9 13 Nordeste 18 Norte 0 -- -- 79
2020-01-09 07:00:00 11.2 8 Nordeste 26 Norte 0 -- -- 77
2020-01-09 06:00:00 11 10 Norte 16 Norte 0 -- -- 81
2020-01-09 05:00:00 11.1 10 Norte 21 Nordeste 0 -- -- 80
2020-01-09 04:00:00 11.4 12 Norte 18 Nordeste 0 -- -- 83
2020-01-09 03:00:00 11.2 10 Norte 17 Norte 0 -- -- 75
2020-01-09 02:00:00 11.1 5 Norte 9 Norte 0 -- -- 84
2020-01-09 01:00:00 11.3 0 Calma 4 Sudeste 0 -- -- 85
2020-01-09 00:00:00 11.6 0 Calma 4 Norte 0 -- -- 84
2020-01-08 23:00:00 11.8 0 Calma 4 Sur 0 -- -- 84
2020-01-08 22:00:00 12.2 0 Calma 6 Noroeste 0 -- -- 82
2020-01-08 21:00:00 12.3 6 Noroeste 19 Norte 0 -- -- 80
2020-01-08 20:00:00 12.3 13 Norte 19 Nordeste 0 -- -- 75
2020-01-08 19:00:00 13.6 4 Noroeste 10 Noroeste 0 -- -- 70
2020-01-08 18:00:00 15.9 5 Norte 13 Oeste 0 -- -- 60
2020-01-08 17:00:00 16.9 4 Norte 19 Sudoeste 0 -- -- 56
2020-01-08 16:00:00 17.2 8 Oeste 22 Sudoeste 0 -- -- 58
2020-01-08 15:00:00 16.9 7 Noroeste 24 Oeste 0 -- -- 55
2020-01-08 14:00:00 15.8 12 Noroeste 18 Noroeste 0 -- -- 61
2020-01-08 13:00:00 15.2 11 Noroeste 19 Noroeste 0 -- -- 61
2020-01-08 12:00:00 14.6 10 Noroeste 21 Noroeste 0 -- -- 64
2020-01-08 11:00:00 13.8 5 Noroeste 16 Norte 0 -- -- 63
2020-01-08 10:00:00 11.9 10 Norte 15 Nordeste 0 -- -- 75
2020-01-08 09:00:00 11.3 6 Norte 15 Norte 0 -- -- 76
2020-01-08 08:00:00 11.1 6 Norte 20 Norte 0 -- -- 77
2020-01-08 07:00:00 11 16 Norte 21 Norte 0 -- -- 72
2020-01-08 06:00:00 11.6 5 Nordeste 18 Nordeste 0 -- -- 66
2020-01-08 05:00:00 11.1 6 Nordeste 15 Nordeste 0 -- -- 69
2020-01-08 04:00:00 11.2 6 Norte 10 Norte 0 -- -- 75
2020-01-08 03:00:00 11.3 2 Norte 5 Norte 0 -- -- 77
2020-01-08 02:00:00 11.5 4 Nordeste 17 Norte 0 -- -- 70
2020-01-08 01:00:00 11.5 9 Norte 15 Norte 0 -- -- 74
2020-01-08 00:00:00 11.7 9 Norte 15 Nordeste 0 -- -- 73
2020-01-07 23:00:00 11.9 6 Norte 12 Norte 0 -- -- 70
2020-01-07 22:00:00 11.6 3 Norte 5 Noroeste 0 -- -- 78
2020-01-07 21:00:00 11.8 5 Nordeste 13 Norte 0 -- -- 75
2020-01-07 20:00:00 12.2 6 Norte 10 Noroeste 0 -- -- 77
2020-01-07 19:00:00 13.1 6 Noroeste 15 Norte 0 -- -- 73
2020-01-07 18:00:00 14.4 6 Noroeste 18 Noroeste 0 -- -- 68
2020-01-07 17:00:00 14.9 13 Noroeste 20 Noroeste 0 -- -- 68
2020-01-07 16:00:00 15 11 Noroeste 22 Noroeste 0 -- -- 64
2020-01-07 15:00:00 15 14 Noroeste 26 Noroeste 0 -- -- 62
2020-01-07 14:00:00 15.5 9 Noroeste 23 Noroeste 0 -- -- 60
2020-01-07 13:00:00 15.7 10 Noroeste 19 Norte 0 -- -- 56
2020-01-07 12:00:00 15.2 9 Noroeste 21 Norte 0 -- -- 55
2020-01-07 11:00:00 14.6 8 Nordeste 17 Norte 0 -- -- 59
2020-01-07 10:00:00 12.6 2 Nordeste 17 Este 0 -- -- 67
2020-01-07 09:00:00 12 5 Noroeste 20 Nordeste 0 -- -- 69
2020-01-07 08:00:00 11.4 13 Nordeste 16 Nordeste 0 -- -- 74
2020-01-07 07:00:00 11.2 8 Norte 23 Norte 0 -- -- 76
2020-01-07 06:00:00 11.2 21 Nordeste 27 Nordeste 0 -- -- 73
2020-01-07 05:00:00 11.3 10 Norte 20 Nordeste 0 -- -- 73
2020-01-07 04:00:00 11 10 Norte 16 Nordeste 0 -- -- 79
2020-01-07 03:00:00 11.1 11 Norte 17 Norte 0 -- -- 80
2020-01-07 02:00:00 11.2 9 Norte 21 Norte 0 -- -- 84
2020-01-07 01:00:00 11.3 12 Nordeste 17 Norte 0 -- -- 79
2020-01-07 00:00:00 11.3 4 Norte 19 Norte 0 -- -- 81
2020-01-06 23:00:00 11.3 10 Nordeste 14 Norte 0 -- -- 80
2020-01-06 22:00:00 11.6 5 Nordeste 6 Norte 0 -- -- 84
2020-01-06 21:00:00 11.9 0 Calma 6 Norte 0 -- -- 88
2020-01-06 20:00:00 12.5 3 Oeste 8 Sudoeste 0 -- -- 90
2020-01-06 19:00:00 13.1 0 Calma 8 Noroeste 0 -- -- 86
2020-01-06 18:00:00 14.9 3 Noroeste 11 Oeste 0 -- -- 75
2020-01-06 17:00:00 14.1 9 Noroeste 14 Noroeste 0 -- -- 79
2020-01-06 16:00:00 14.2 2 Norte 15 Noroeste 0 -- -- 81
2020-01-06 15:00:00 13.6 9 Noroeste 17 Noroeste 0 -- -- 83
2020-01-06 14:00:00 13.9 6 Noroeste 14 Noroeste 0 -- -- 81
2020-01-06 13:00:00 15.2 8 Noroeste 15 Noroeste 0 -- -- 77
2020-01-06 12:00:00 14.4 6 Noroeste 20 Noroeste 0 -- -- 79
2020-01-06 11:00:00 13.6 10 Noroeste 25 Noroeste 0 -- -- 74
2020-01-06 10:00:00 12.2 0 Calma 14 Nordeste 0 -- -- 70
2020-01-06 09:00:00 11.2 9 Nordeste 12 Norte 0 -- -- 69